{"data":{"norad_id":59880,"intl_designator":"2024-098Y","name":"STARLINK-31919","alt_names":[],"object_type":"PAYLOAD","status":"ACTIVE","operator":null,"country":"US","launch_date":"2024-05-24","launch_site_code":"AFETR","launch_vehicle":null,"mission":null,"orbit_class":"UNKNOWN","rcs_meters":null,"size_class":null,"mass_kg":null,"dimensions":null,"purposes":["comms"],"wikipedia_slug":null,"has_3d_model":false,"image_url":null,"decayed_at":null,"tle_current":{"epoch":"2026-09-21T10:38:15.784800Z","epoch_age_seconds":92994,"freshness":"FRESH","line1":"1 59880U 24098Y   26264.44323825  .00000853  00000+0  40527-4 0  9991","line2":"2 59880  43.0022 252.5243 0001118 267.3844  92.6879 15.27580773131787","mean_motion":15.27580773,"eccentricity":0.0001118,"inclination_deg":43.0022,"raan_deg":252.5243,"arg_perigee_deg":267.3844,"mean_anomaly_deg":92.6879,"bstar":4.0527e-5,"rev_number":13178,"period_min":94.266701011954,"perigee_km":482.27970105378,"apogee_km":483.8138617473,"semimajor_km":6861.1837814005,"source":"CELESTRAK","updated_at":"2026-09-22T09:00:49.104981Z"}}}